This is the latest recevied weather packets stored in our database for station/object KE0WPC. If no packets are shown the sender has not sent any weather packets the latest 10 day(s).
| Time | Temp. | Humidity | Pressure | Rain* | Wind** | Luminosity | Snow |
|---|---|---|---|---|---|---|---|
| 1777847987 | 21.67° C | 14% | 1008.3 hPa | - | - | - | - |
| 1777847685 | 21.67° C | 14% | 1008.3 hPa | - | - | - | - |
| 1777847380 | 21.67° C | 14% | 1008.3 hPa | - | - | - | - |
| 1777847079 | 22.22° C | 12% | 1008.6 hPa | - | - | - | - |
| 1777846777 | 22.22° C | 16% | 1008.3 hPa | - | - | - | - |
| 1777846475 | 22.22° C | 18% | 1008.6 hPa | - | - | - | - |
| 1777846171 | 22.22° C | 18% | 1008.6 hPa | - | - | - | - |
| 1777845867 | 22.22° C | 19% | 1008.6 hPa | - | - | - | - |
| 1777845565 | 22.22° C | 17% | 1008.6 hPa | - | - | - | - |
| 1777845262 | 22.22° C | 17% | 1008.9 hPa | - | - | - | - |
| 1777844959 | 21.67° C | 17% | 1008.6 hPa | - | - | - | - |
| 1777844657 | 21.67° C | 16% | 1008.9 hPa | - | - | - | - |
| 1777844354 | 21.67° C | 19% | 1008.9 hPa | - | - | - | - |
| 1777844052 | 21.67° C | 19% | 1009.3 hPa | - | - | - | - |
| 1777843748 | 21.67° C | 19% | 1008.9 hPa | - | - | - | - |
| 1777843446 | 21.67° C | 19% | 1008.9 hPa | - | - | - | - |
| 1777843143 | 21.67° C | 18% | 1009.3 hPa | - | - | - | - |
| 1777842839 | 21.11° C | 20% | 1009.3 hPa | - | - | - | - |
| 1777842535 | 21.11° C | 17% | 1009.3 hPa | - | - | - | - |
| 1777842232 | 21.67° C | 21% | 1009.7 hPa | - | - | - | - |
| 1777841928 | 21.67° C | 22% | 1009.7 hPa | - | - | - | - |
| 1777841625 | 21.11° C | 20% | 1009.7 hPa | - | - | - | - |
| 1777841321 | 21.11° C | 18% | 1010.1 hPa | - | - | - | - |
| 1777841018 | 21.11° C | 22% | 1010.1 hPa | - | - | - | - |
| 1777840716 | 21.11° C | 22% | 1010.1 hPa | - | - | - | - |
* Rain since midnight (hover to see other rain measurements)
** Current wind speed in m/s (hover to see current wind gust speed)